Temperature
12 12 12 12 12 12 12 12 12 12 12 12 12 12 12 12 12 12 12 12 12 12 12 12 12 12 12 12 12 12 12 12 12 12 12 12 12 11 11 11 11 10 10
11 11 11 11 11 11 11 11 11 11 11 11 12 12 12 12 12 12 12 12 12 12 12 12 12 12 12 12 12 12 12 12 12 12 12 12 11 11 11 11 11 10 10
11 11 11 11 11 11 10 10 10 11 11 11 11 11 11 11 11 11 11 11 11 11 11 11 11 11 11 12 12 12 12 12 12 12 12 12 11 11 11 11 11 10 10
10 10 10 10 10 10 10 10 10 10 10 10 10 10 10 10 10 10 10 11 11 11 11 11 11 11 11 11 11 11 11 11 12 12 12 11 11 11 11 11 10 10 10
10 10 9 9 9 9 9 9 9 9 9 9 9 9 10 10 10 10 10 10 10 10 10 10 10 10 11 11 11 11 11 11 11 11 11 11 11 11 11 11 10 10 10
9 9 9 9 9 8 8 8 8 8 8 8 8 8 9 9 9 9 9 9 9 10 10 10 10 10 10 10 10 11 11 11 11 11 11 11 11 11 10 10 10 10 10
9 8 8 8 8 8 8 7 7 7 8 7 7 7 8 8 8 9 9 9 9 9 9 9 9 9 9 10 10 10 10 10 10 10 10 10 10 10 10 10 10 10 10
8 8 8 8 7 7 7 7 7 7 7 7 6 6 6 6 7 7 8 8 8 8 8 8 9 9 9 9 9 9 10 10 10 10 10 10 10 10 10 10 10 9 9
8 7 7 7 7 7 6 6 6 6 6 6 6 5 5 5 5 6 7 7 7 7 7 8 8 8 8 8 9 9 9 9 9 10 10 10 10 10 9 9 9 9 9
7 7 7 7 6 6 6 6 6 6 5 5 5 5 5 5 4 4 5 6 6 7 7 7 7 7 8 8 8 8 9 9 9 9 9 9 9 9 9 9 9 9 9
7 6 6 6 6 6 6 5 5 5 5 5 5 4 4 4 4 4 4 5 5 6 6 6 6 7 7 7 7 8 8 8 8 9 9 9 9 9 9 9 9 9 8
6 6 6 6 5 5 5 5 5 5 5 5 4 4 4 4 4 4 3 4 4 5 5 6 6 6 6 7 7 7 7 8 8 8 8 8 8 8 8 8 8 8 8
6 6 5 5 5 5 5 5 5 5 4 4 4 4 4 4 3 3 3 3 3 4 4 5 6 6 6 6 6 7 7 7 7 8 8 8 8 8 8 8 8 8 8
5 5 5 5 5 5 4 4 4 4 4 4 4 4 3 3 3 3 3 3 2 3 3 4 5 5 6 6 6 6 7 7 7 7 7 8 8 8 8 8 8 8 7
5 5 5 4 4 4 4 4 4 4 4 4 4 4 3 3 3 3 3 3 2 2 3 4 4 5 5 6 6 6 6 7 7 7 7 7 7 7 7 7 7 7 7
5 5 4 4 4 4 4 4 4 4 3 4 3 3 3 3 3 2 3 3 3 2 2 3 4 4 5 5 5 5 6 6 7 7 7 7 7 7 7 7 7 7 6
4 4 4 4 4 4 3 3 3 3 3 3 3 3 3 3 2 2 2 2 2 2 2 3 3 4 4 5 5 5 5 6 6 6 6 7 7 6 6 6 6 6 6
4 4 4 4 4 3 3 3 3 3 3 3 3 3 3 2 2 2 2 2 2 2 2 2 3 3 4 4 5 5 5 5 6 6 6 6 6 6 6 6 6 6 5
4 4 3 3 3 3 3 3 2 2 2 2 2 2 2 2 2 2 2 2 2 2 2 2 3 3 3 4 4 5 5 5 5 5 5 6 6 5 6 5 5 5 5
3 3 3 3 3 2 2 2 2 2 2 2 2 2 2 2 2 2 2 2 2 2 2 2 2 3 3 4 4 4 4 5 5 5 5 5 5 5 5 5 5 5 4
3 2 2 2 2 2 2 2 2 2 2 2 2 2 2 2 2 2 2 2 2 2 2 2 2 3 3 3 3 4 4 4 4 4 4 4 4 4 4 4 4 4 4
2 2 2 1 2 2 2 2 1 1 1 2 2 2 2 2 2 2 2 2 2 2 2 2 2 3 3 3 3 3 3 3 3 3 3 3 4 4 4 4 4 4 3
1 1 1 1 1 1 1 1 1 1 1 1 1 2 2 2 2 2 2 2 2 2 2 2 2 3 3 3 3 3 3 3 3 3 3 3 3 3 3 3 3 3 3
1 0 1 1 1 1 1 1 1 1 1 1 1 1 1 1 2 1 1 1 2 2 2 2 2 3 3 3 3 3 3 3 3 3 3 2 2 2 2 2 2 2 2
0 -0 -0 0 0 0 1 1 1 1 1 1 1 1 1 1 1 1 1 1 2 2 2 2 2 2 2 3 3 3 3 2 2 2 2 2 2 2 2 2 2 2 2
-1 -1 -1 -0 -0 0 0 0 0 0 1 1 1 1 1 1 1 1 1 1 1 2 2 2 2 2 2 2 2 2 3 2 2 1 2 2 1 1 1 1 1 1 1
Wind_Speed
2 2 3 4 4 4 3 2 2 3 3 3 3 2 3 3 4 4 5 8 10 11 12 13 14 14 15 14 14 13 14 15 15 15 15 14 16 17 17 16 16 15 13
2 1 2 2 3 4 3 2 2 2 2 2 3 3 3 3 4 5 6 7 9 11 12 13 14 15 15 15 15 14 14 16 16 15 15 15 14 16 17 17 17 16 15
2 1 1 2 3 4 4 3 3 2 2 3 3 4 3 3 4 5 6 6 7 10 12 13 14 15 15 16 16 16 15 15 17 17 16 15 15 15 16 16 17 17 16
2 1 1 2 3 4 2 2 2 2 3 3 3 4 4 4 5 5 5 6 6 7 10 13 15 16 16 16 16 16 16 16 17 17 17 17 16 16 16 17 16 16 16
3 2 1 2 3 2 2 2 2 2 3 4 4 4 4 4 5 6 5 5 6 7 8 10 13 15 16 17 17 17 17 17 16 17 17 16 17 16 17 16 18 17 16
3 2 2 2 2 2 2 2 3 3 3 4 5 5 4 5 5 5 5 5 5 6 7 8 9 11 14 16 17 18 18 18 17 17 18 17 17 17 17 18 17 17 17
2 2 2 2 2 2 3 3 3 3 3 2 2 4 4 5 5 4 4 4 5 6 6 7 7 8 9 13 15 17 18 18 18 18 18 17 17 17 18 17 17 17 17
4 3 2 3 3 2 3 3 2 2 2 1 1 2 4 4 3 4 4 5 6 5 6 8 7 8 8 7 10 15 17 18 19 18 17 17 17 17 17 17 17 17 17
5 4 4 4 4 3 4 4 4 4 3 3 2 2 2 4 5 4 4 5 5 5 6 6 8 9 9 8 9 12 16 18 19 19 18 17 17 18 17 17 16 17 16
6 6 5 5 5 5 5 5 5 4 4 4 3 4 5 4 4 5 4 4 6 7 7 7 8 9 9 9 11 13 16 18 19 20 19 17 18 18 18 17 17 15 14
6 6 6 6 6 6 7 7 6 6 5 6 5 4 4 4 5 6 8 6 6 5 6 7 7 8 9 9 10 13 15 17 18 18 18 17 17 18 18 17 16 15 13
5 6 7 6 7 7 7 7 7 8 7 7 6 6 5 5 5 6 8 9 8 7 6 6 7 7 9 9 12 15 16 16 17 17 17 17 17 17 18 18 16 15 12
5 7 7 7 7 7 8 8 8 8 8 8 8 7 7 8 6 6 8 9 9 8 6 6 6 7 8 9 10 14 14 15 15 15 16 15 15 15 15 16 15 13 11
7 8 8 8 8 9 9 8 7 8 8 9 10 9 8 8 7 7 7 8 10 9 7 8 5 7 7 8 11 13 12 14 15 15 15 14 13 12 12 12 11 11 10
7 8 8 8 8 9 9 8 8 9 8 9 9 10 9 8 7 7 7 7 8 11 12 8 5 6 7 8 10 9 10 14 15 15 14 13 11 10 10 10 9 9 8
8 8 8 9 9 9 9 8 8 9 9 10 8 9 10 8 8 7 7 8 8 10 12 7 7 7 7 8 11 9 10 14 13 13 12 10 9 8 8 8 7 7 7
8 9 9 9 9 9 9 9 10 10 11 11 10 10 11 9 8 8 7 8 8 8 11 10 7 7 7 7 7 7 8 8 8 10 10 9 7 7 7 7 7 7 6
9 9 9 9 9 9 9 10 11 11 11 12 11 11 11 9 10 9 8 9 9 8 9 12 9 7 7 6 5 5 5 5 5 7 7 6 6 6 6 6 6 6 5
9 9 8 9 10 10 10 10 10 11 11 12 11 12 12 10 11 9 9 9 8 8 8 9 10 6 5 4 3 3 3 2 3 3 3 3 4 4 5 5 5 5 4
8 9 9 9 10 10 10 10 10 11 12 12 11 12 12 11 11 11 9 9 8 8 7 8 8 6 5 3 2 2 2 2 1 2 1 1 3 4 4 5 5 4 4
8 8 9 9 9 9 9 10 10 11 11 11 11 11 11 12 14 12 9 8 8 7 7 7 7 6 4 2 2 1 1 2 2 1 2 2 2 1 1 3 3 4 4
8 8 9 9 10 9 14 16 13 10 10 11 11 10 10 11 13 15 16 15 12 10 9 7 6 6 6 3 2 2 1 0 2 1 2 2 2 1 1 0 2 3 4
8 9 9 9 10 12 16 17 16 10 10 10 10 9 9 9 10 9 12 13 13 15 14 10 8 8 6 5 4 2 2 1 1 0 2 1 2 1 2 0 2 3 4
8 8 9 9 10 12 16 17 16 10 9 9 9 9 9 9 9 9 7 8 8 7 8 7 7 7 6 5 4 3 3 2 2 1 1 0 1 1 2 2 2 4 4
8 8 9 9 10 12 15 16 14 7 7 7 7 7 8 9 11 11 7 7 5 4 3 3 4 4 5 5 4 3 4 3 0 1 1 1 1 1 2 2 2 4 4
8 9 9 9 9 10 14 15 13 6 6 6 5 5 8 9 11 10 7 6 5 3 2 1 1 1 2 2 2 3 5 4 2 1 1 1 1 1 1 2 2 2 3
Wind_Direction
31 18 10 7 4 10 4 353 351 345 346 342 341 333 308 299 289 282 281 285 280 272 269 269 268 266 262 256 251 246 239 233 229 227 225 225 224 221 220 221 222 224 225
42 22 0 358 355 355 353 344 326 318 315 321 325 322 305 296 294 290 285 283 284 279 274 274 273 271 268 262 255 251 248 240 233 229 226 226 226 225 223 224 225 225 228
36 29 339 328 335 341 343 345 334 339 328 331 323 314 308 297 291 286 285 277 278 281 276 275 275 275 273 268 263 257 252 248 241 233 229 228 228 229 228 226 227 227 229
17 19 303 301 326 340 339 317 320 325 318 316 309 302 300 294 287 279 281 276 275 278 278 278 276 276 276 274 268 264 257 253 249 241 234 230 230 231 232 230 228 228 230
357 358 287 292 326 331 315 311 323 313 305 307 299 293 291 287 281 282 275 274 274 275 276 281 280 277 278 277 274 270 264 258 254 248 239 235 233 233 232 233 231 229 230
329 334 302 297 313 308 311 309 299 306 290 287 298 298 285 280 273 267 268 278 281 281 281 282 281 279 278 278 278 274 271 264 260 255 245 239 237 236 234 234 234 232 231
295 278 274 284 279 276 279 286 287 294 302 304 315 309 294 271 262 263 271 279 281 283 283 282 279 275 277 277 278 276 274 270 264 263 251 242 240 240 238 236 235 236 233
278 272 259 265 270 272 282 283 287 273 281 301 303 321 314 312 290 277 278 273 278 284 287 291 282 278 275 273 275 276 274 273 268 265 253 246 243 242 239 240 238 237 237
273 264 254 255 261 256 260 264 256 245 267 268 221 220 273 281 302 277 262 268 272 280 282 284 280 277 275 273 271 271 270 271 270 266 258 251 247 243 241 240 241 239 240
267 264 256 249 253 251 253 256 253 244 241 258 254 236 238 246 276 297 282 273 281 280 276 283 282 278 274 271 269 270 269 269 268 266 260 252 250 245 241 239 239 239 240
263 260 254 248 252 251 250 251 252 245 236 242 244 245 257 260 248 260 283 287 288 272 268 272 277 278 274 272 269 268 270 270 267 266 263 256 254 250 243 239 238 236 235
272 264 258 251 253 252 250 250 246 243 242 245 246 239 243 249 249 253 270 280 287 287 280 272 269 271 271 268 268 273 273 270 267 266 265 259 258 255 248 242 241 237 231
276 272 270 260 258 254 250 247 246 245 240 242 244 246 244 248 251 255 266 277 284 288 282 274 260 266 272 267 267 271 271 271 268 265 265 259 256 254 251 244 242 235 230
265 267 265 260 258 259 258 249 251 249 247 243 248 246 250 250 247 247 253 267 283 289 281 271 270 259 267 269 272 270 268 269 268 265 263 256 250 249 249 241 237 230 229
269 268 263 262 263 262 261 255 253 253 250 247 247 246 248 253 248 248 248 246 256 279 283 277 271 264 267 270 271 272 270 269 267 265 261 252 244 238 236 232 229 228 226
270 272 269 265 265 264 262 259 259 256 254 253 250 249 250 253 252 249 248 248 243 254 272 277 273 278 273 278 275 275 274 275 266 263 255 245 237 229 225 223 221 217 215
273 271 270 268 267 266 263 260 259 256 256 258 254 251 252 252 253 254 251 248 246 245 265 279 277 279 272 274 281 275 278 272 261 254 249 241 231 218 212 210 205 203 205
273 270 271 270 268 268 264 260 264 261 257 259 256 254 255 255 252 252 249 249 248 246 255 273 283 279 272 272 274 274 283 286 267 250 241 235 225 207 194 188 188 191 194
276 276 271 269 269 268 267 263 262 262 258 256 255 254 254 251 253 253 249 250 251 254 251 263 276 276 276 274 285 288 289 292 292 274 226 199 189 175 168 163 165 169 177
281 280 275 270 269 268 267 265 263 264 262 259 256 254 252 246 249 253 252 250 251 253 253 259 267 271 265 261 258 263 308 342 347 8 44 95 131 131 142 149 157 167 177
288 285 284 282 277 275 270 271 271 270 267 265 262 257 252 249 250 252 253 250 248 252 255 260 262 267 258 247 249 232 266 357 17 47 80 56 82 94 133 141 149 170 183
292 290 287 285 283 282 284 285 283 276 272 265 264 261 256 252 253 256 257 255 250 248 250 253 259 254 250 239 232 223 179 123 330 40 82 24 43 50 8 167 165 166 167
292 293 291 287 284 284 288 290 289 286 274 264 258 257 260 255 256 251 258 261 258 254 249 247 246 248 236 216 200 218 202 223 276 235 82 12 16 12 360 69 118 144 152
293 292 292 290 289 290 293 294 296 290 281 270 257 248 248 251 248 247 251 258 257 254 248 240 233 234 226 205 198 198 164 102 52 22 80 110 355 8 20 22 84 100 116
299 295 293 290 289 292 294 297 298 287 281 278 264 252 248 248 251 250 251 252 255 265 264 236 222 210 205 200 183 150 149 141 102 330 349 121 113 33 28 31 44 73 87
296 298 297 294 288 289 293 299 300 287 283 281 274 260 254 252 253 253 239 226 230 240 202 152 133 154 171 174 190 183 172 164 164 250 238 112 129 76 44 20 32 46 68
Height
1492 1492 1492 1491 1491 1491 1491 1490 1490 1489 1489 1489 1489 1488 1488 1489 1488 1488 1488 1488 1488 1488 1489 1490 1490 1490 1490 1490 1490 1490 1491 1492 1492 1493 1493 1494 1495 1496 1496 1497 1497 1498 1498
1490 1489 1489 1489 1488 1488 1488 1487 1487 1486 1486 1485 1485 1485 1484 1484 1484 1484 1484 1483 1484 1483 1484 1484 1484 1484 1484 1485 1485 1485 1486 1486 1487 1487 1488 1489 1490 1491 1491 1492 1493 1493 1494
1487 1487 1487 1486 1486 1485 1485 1484 1484 1483 1482 1481 1481 1481 1480 1480 1480 1479 1479 1479 1479 1478 1478 1479 1479 1479 1479 1479 1479 1480 1480 1480 1481 1481 1482 1483 1484 1485 1486 1487 1487 1488 1489
1485 1484 1484 1483 1483 1482 1481 1481 1480 1479 1478 1477 1476 1476 1476 1475 1475 1475 1474 1474 1474 1473 1473 1473 1473 1473 1473 1473 1473 1474 1474 1474 1475 1475 1475 1476 1478 1479 1480 1481 1482 1482 1483
1482 1481 1480 1480 1480 1479 1478 1477 1476 1475 1474 1473 1472 1471 1471 1470 1470 1470 1469 1469 1469 1468 1467 1467 1467 1467 1467 1467 1467 1468 1468 1468 1468 1469 1469 1469 1471 1472 1473 1475 1476 1476 1477
1479 1478 1477 1477 1476 1476 1475 1474 1473 1472 1471 1469 1468 1466 1466 1465 1465 1464 1464 1464 1463 1463 1462 1461 1461 1461 1460 1461 1461 1461 1461 1462 1462 1462 1463 1463 1464 1465 1466 1468 1469 1470 1471
1476 1475 1474 1473 1473 1472 1471 1470 1469 1468 1467 1466 1463 1461 1460 1460 1459 1459 1459 1458 1458 1457 1457 1456 1455 1455 1454 1454 1454 1454 1454 1455 1455 1455 1456 1456 1457 1458 1460 1461 1462 1463 1465
1473 1472 1471 1470 1469 1468 1468 1467 1466 1464 1463 1463 1461 1457 1454 1453 1453 1453 1453 1452 1452 1451 1451 1450 1449 1449 1448 1447 1447 1447 1447 1448 1448 1448 1449 1449 1450 1452 1453 1455 1456 1457 1458
1469 1468 1467 1466 1465 1464 1463 1462 1462 1460 1459 1459 1459 1457 1454 1449 1447 1445 1445 1446 1446 1445 1444 1444 1443 1442 1442 1441 1440 1440 1441 1441 1441 1441 1441 1442 1443 1445 1446 1447 1449 1451 1451
1465 1464 1463 1462 1461 1460 1459 1458 1457 1456 1455 1454 1454 1453 1452 1449 1446 1440 1438 1439 1440 1439 1438 1437 1436 1436 1435 1434 1434 1433 1433 1433 1433 1434 1433 1434 1436 1437 1439 1440 1442 1444 1444
1461 1460 1459 1457 1456 1455 1454 1453 1452 1451 1450 1449 1448 1447 1446 1445 1443 1440 1433 1431 1431 1431 1431 1431 1430 1429 1428 1428 1427 1426 1426 1426 1426 1426 1426 1427 1429 1431 1432 1433 1435 1436 1437
1455 1455 1453 1452 1450 1449 1448 1447 1446 1445 1444 1443 1442 1441 1440 1439 1437 1436 1431 1427 1425 1423 1424 1424 1423 1422 1421 1421 1420 1419 1418 1418 1418 1419 1419 1420 1422 1423 1425 1427 1428 1429 1430
1450 1449 1447 1446 1444 1443 1442 1441 1439 1438 1437 1436 1436 1435 1434 1433 1432 1431 1428 1424 1421 1417 1416 1416 1416 1416 1415 1414 1413 1412 1411 1410 1411 1411 1412 1413 1415 1416 1418 1420 1421 1422 1423
1444 1443 1441 1439 1438 1437 1435 1434 1432 1431 1430 1429 1428 1428 1427 1426 1426 1425 1423 1421 1416 1412 1409 1408 1409 1409 1409 1408 1407 1405 1404 1403 1404 1405 1406 1406 1408 1409 1412 1413 1414 1415 1417
1439 1437 1435 1433 1431 1430 1428 1427 1425 1424 1423 1422 1421 1420 1419 1418 1418 1418 1417 1416 1414 1408 1402 1401 1402 1402 1402 1401 1400 1399 1398 1397 1397 1398 1399 1400 1401 1403 1405 1407 1408 1409 1411
1433 1431 1429 1427 1425 1423 1421 1420 1418 1417 1416 1414 1413 1413 1412 1411 1410 1410 1410 1409 1408 1405 1399 1396 1396 1396 1396 1395 1395 1393 1392 1391 1391 1391 1392 1393 1394 1396 1399 1400 1402 1404 1406
1427 1425 1423 1420 1418 1416 1414 1413 1411 1409 1408 1406 1405 1405 1404 1404 1403 1402 1402 1401 1401 1400 1395 1391 1391 1391 1390 1389 1388 1388 1387 1385 1385 1385 1386 1387 1388 1390 1392 1394 1396 1398 1400
1421 1418 1416 1414 1411 1409 1407 1405 1403 1401 1400 1398 1397 1397 1396 1396 1395 1395 1394 1394 1393 1393 1391 1387 1385 1385 1384 1383 1382 1382 1381 1380 1380 1380 1381 1382 1383 1385 1387 1389 1391 1393 1394
1414 1412 1409 1407 1404 1402 1400 1398 1396 1393 1392 1391 1390 1389 1388 1388 1387 1388 1387 1386 1386 1386 1385 1383 1381 1380 1379 1379 1378 1377 1377 1376 1376 1376 1376 1377 1379 1381 1383 1385 1387 1388 1390
1407 1405 1402 1400 1397 1395 1392 1390 1388 1386 1384 1383 1382 1381 1381 1381 1380 1380 1380 1380 1380 1380 1379 1378 1376 1375 1374 1374 1374 1373 1372 1372 1373 1373 1373 1375 1377 1378 1380 1381 1383 1384 1386
1401 1398 1395 1392 1390 1387 1385 1383 1380 1378 1376 1375 1374 1374 1373 1373 1373 1374 1374 1373 1374 1373 1373 1373 1371 1370 1369 1370 1370 1370 1369 1369 1370 1371 1371 1373 1375 1376 1377 1378 1380 1380 1382
1395 1392 1388 1385 1382 1380 1378 1376 1374 1371 1369 1367 1366 1366 1366 1366 1367 1367 1367 1367 1368 1368 1367 1367 1367 1366 1365 1366 1367 1367 1367 1367 1366 1369 1369 1370 1373 1373 1375 1376 1377 1378 1379
1388 1385 1382 1378 1375 1373 1371 1369 1366 1364 1361 1360 1359 1359 1359 1359 1360 1361 1360 1361 1361 1362 1362 1362 1361 1361 1362 1363 1364 1364 1364 1364 1364 1366 1368 1368 1371 1372 1373 1374 1375 1376 1377
1383 1379 1375 1372 1369 1366 1364 1362 1360 1358 1355 1353 1352 1352 1353 1353 1354 1354 1354 1354 1354 1355 1356 1356 1357 1357 1358 1359 1361 1361 1362 1362 1363 1365 1367 1367 1369 1370 1372 1373 1374 1375 1376
1377 1373 1370 1367 1363 1361 1359 1357 1355 1352 1350 1348 1347 1347 1347 1347 1348 1348 1349 1349 1349 1349 1351 1352 1352 1354 1355 1356 1358 1359 1359 1360 1361 1363 1365 1366 1368 1369 1371 1372 1373 1374 1374
1372 1368 1365 1362 1359 1356 1354 1352 1350 1348 1345 1343 1342 1342 1342 1342 1342 1343 1344 1344 1344 1345 1346 1347 1349 1350 1352 1354 1355 1357 1357 1358 1359 1361 1363 1365 1366 1368 1370 1371 1372 1373 1373